STARLINK-36716, 67699

Orbit data source: Space-Track

STARLINK-36716, 67699 is a payload satellite owned by SpaceX/Seattle (US) in SSO that was launched on Sat, 07 Feb 2026 UTC via an FALCON 9 launch vehicle from the Air Force Western Test Range (AFWTR). Payload-class satellites include a variety of spacecraft equipped with specific instruments for various scientific and technological missions. These include communications satellites like Starlink; space stations such as the ISS; scientific satellites like the Hubble; Earth observation satellites from companies like Planet Labs, Umbra, and HawkEye 360; GPS; miniature CubeSats for education and research; and military/defense satellites.

Loading next visibility...
Identifier
67699, 2026-025G
Orbit
SSO
Country
Flag of USUS
Related business
Manufacturer
SpaceX/Seattle
Mission
Operational spacecraft
Bus & Motor
STARLINK V2MO, Unknown motor
Mass
575 kg wet, ~530 kg dry
Launch date (UTC)
2026-02-07 (1 month ago)
Launch vehicle
FALCON 9
Launch site
Air Force Western Test Range (AFWTR)
Object type
Payload
Rocket body
Debris
Shape & HBR
Unknown
Radar Cross Section
RCS unknown

Expand to show TLE details & history
Last TLE update: 13 hours ago

TLE from 13 hours ago
0 STARLINK-36716
1 67699U 26025G   26071.80583976  .00199650  00000-0  13106-2 0  9997
2 67699  97.2849 183.5874 0001560 121.2047 238.9371 15.75149407  6443
Epoch: 2026-03-12T19:20Z
TLE epoch observation values (Epoch: 2026-03-12T19:20:24.555Z)
Latitude
-0.00004°
Longitude
83.03464°
Altitude
347.916 km
Speed
7.7 km/s
True Right ascension
12h 14m 20s
True Declination
0° 00' 00"
Sunlit
Object was in full shadow at epoch
Visualization orbit readout
Latitude
Unknown
Longitude
Unknown
Altitude
Unknown
Speed
Unknown
Apparent Right ascension
Unknown
Apparent Declination
Unknown
Sunlit
N/A
Visualization observer readout
Local Sidereal Time
13:06:05
Azimuth
Unknown
Elevation
Unknown
Doppler factor
Unknown
Orbital elements
Apogee altitude
342.142 km
Perigee altitude
340.045 km
Semi-major axis
6,719.231 km
Eccentricity
0.00016
Inclination
97.2849°
RAAN
183.5874°
Arg. of periapsis
121.2047°
True anomaly
238.92179°
Mean anomaly
238.9371°
Eccentric anomaly
238.92944°
Mean motion
3.94061 °/min
Orbital period
91.36 mins
BSTAR
0.0013106
Loading maneuver chart data...
Computing Atmospheric mass density...
Loading historical data...
Loading historical data...
Loading historical data...
Loading historical data...
Loading historical data...
Loading historical data...
Loading historical data...

Documentation

Showing up to 5 results
|